Terminal Aerodrome Forecast
Issued by NWS

Home | Current Version | Previous Version | Text Only | Print | Product List | Glossary On
Versions: 1 2 3 4 5 6 7 8 9 10 11 12 13 14 15 16 17 18 19 20 21 22 23 24 25 26 27 28 29 30 31 32 33 34 35 36 37 38 39 40 41 42 43 44 45 46 47 48 49
000
FTUS43 KBIS 152113 AAB
TAFMOT
TAF AMD
KMOT 152113Z 1521/1618 33014G23KT P6SM SCT040 BKN120
     FM160100 03009KT P6SM SCT014 BKN024
     FM160500 VRB04KT P6SM SCT009 BKN024=

USA.gov is the U.S. government's official web portal to all federal, state and local government web resources and services.